• In Uzbekistan
  • List of Countries
  • For 7 days
  • Water Temperature
  • Satellite Maps
  • Weather Map
  • Weather Widgets
  • user-avatar
    Login

    Hourly Weather Maseru

    Today, 17 December, Sunday

    Time Temperature Precipitation Wind Pressure Humidity
    00:00 +23°C° 0 mm 2 mps 636 mmHg 32%
    01:00 +23°C° 0 mm 2 mps 637 mmHg 32%
    02:00 +23°C° 0 mm 2 mps 637 mmHg 33%
    03:00 +21°C° 0 mm 2 mps 637 mmHg 35%
    04:00 +21°C° 0 mm 2 mps 637 mmHg 37%
    05:00 +20°C° 0 mm 2 mps 636 mmHg 39%
    06:00 +23°C° 0 mm 2 mps 637 mmHg 39%
    07:00 +24°C° 0 mm 3 mps 638 mmHg 38%
    08:00 +26°C° 0 mm 3 mps 638 mmHg 38%
    09:00 +27°C° 0 mm 4 mps 638 mmHg 37%
    10:00 +28°C° 0 mm 4 mps 638 mmHg 35%
    11:00 +29°C° 0 mm 5 mps 638 mmHg 34%
    12:00 +30°C° 0 mm 5 mps 638 mmHg 33%
    13:00 +30°C° 0 mm 6 mps 638 mmHg 32%
    14:00 +32°C° 0 mm 6 mps 637 mmHg 30%
    15:00 +29°C° 0.6 mm 6 mps 637 mmHg 37%
    16:00 +27°C° 0.6 mm 5 mps 636 mmHg 44%
    17:00 +25°C° 0.6 mm 5 mps 635 mmHg 50%
    18:00 +23°C° 0.1 mm 4 mps 635 mmHg 54%
    19:00 +22°C° 0.1 mm 3 mps 635 mmHg 58%
    20:00 +22°C° 0.1 mm 1 mps 635 mmHg 62%
    21:00 +22°C° 0 mm 1 mps 635 mmHg 63%
    22:00 +21°C° 0 mm 1 mps 635 mmHg 65%
    23:00 +21°C° 0 mm 1 mps 635 mmHg 66%

    Tomorrow, 18 December, Monday

    Time Temperature Precipitation Wind Pressure Humidity
    00:00 +21°C° 0 mm 1 mps 635 mmHg 67%
    01:00 +21°C° 0 mm 1 mps 635 mmHg 67%
    02:00 +18°C° 0 mm 0 mps 634 mmHg 67%
    03:00 +20°C° 0.1 mm 1 mps 634 mmHg 66%
    04:00 +20°C° 0.1 mm 1 mps 634 mmHg 65%
    05:00 +21°C° 0.1 mm 1 mps 634 mmHg 64%
    06:00 +21°C° 0.4 mm 1 mps 634 mmHg 62%
    07:00 +21°C° 0.4 mm 2 mps 635 mmHg 59%
    08:00 +23°C° 0.4 mm 2 mps 635 mmHg 57%
    09:00 +23°C° 0.9 mm 2 mps 635 mmHg 58%
    10:00 +23°C° 0.9 mm 2 mps 635 mmHg 60%
    11:00 +22°C° 0.9 mm 3 mps 635 mmHg 61%
    12:00 +25°C° 0 mm 3 mps 635 mmHg 51%
    13:00 +28°C° 0 mm 4 mps 635 mmHg 42%
    14:00 +30°C° 0 mm 5 mps 635 mmHg 32%
    15:00 +29°C° 0.3 mm 7 mps 635 mmHg 35%
    16:00 +28°C° 0.3 mm 8 mps 634 mmHg 39%
    17:00 +27°C° 0.3 mm 10 mps 633 mmHg 42%
    18:00 +24°C° 1.4 mm 7 mps 633 mmHg 52%
    19:00 +22°C° 1.4 mm 4 mps 633 mmHg 63%
    20:00 +20°C° 1.4 mm 2 mps 633 mmHg 73%
    21:00 +20°C° 0.1 mm 2 mps 633 mmHg 74%
    22:00 +19°C° 0.1 mm 2 mps 633 mmHg 75%
    23:00 +19°C° 0.1 mm 2 mps 634 mmHg 76%

    Day after tomorrow, 19 December, Tuesday

    Time Temperature Precipitation Wind Pressure Humidity
    00:00 +18°C° 0 mm 2 mps 633 mmHg 76%
    01:00 +19°C° 0 mm 1 mps 633 mmHg 76%
    02:00 +18°C° 0 mm 1 mps 632 mmHg 77%
    03:00 +19°C° 0.4 mm 1 mps 633 mmHg 77%
    04:00 +18°C° 0.4 mm 2 mps 633 mmHg 77%
    05:00 +18°C° 0.4 mm 2 mps 633 mmHg 77%
    06:00 +19°C° 0.1 mm 2 mps 634 mmHg 70%
    07:00 +21°C° 0.1 mm 2 mps 635 mmHg 64%
    08:00 +22°C° 0.1 mm 3 mps 635 mmHg 57%
    09:00 +25°C° 0 mm 4 mps 636 mmHg 49%
    10:00 +27°C° 0 mm 5 mps 636 mmHg 41%
    11:00 +29°C° 0 mm 6 mps 637 mmHg 32%
    12:00 +29°C° 0 mm 7 mps 636 mmHg 29%
    13:00 +30°C° 0 mm 7 mps 636 mmHg 25%
    14:00 +32°C° 0 mm 7 mps 635 mmHg 21%
    15:00 +30°C° 0 mm 7 mps 635 mmHg 21%
    16:00 +30°C° 0 mm 7 mps 635 mmHg 21%
    17:00 +30°C° 0 mm 7 mps 635 mmHg 20%
    18:00 +28°C° 0 mm 5 mps 635 mmHg 24%
    19:00 +25°C° 0 mm 4 mps 635 mmHg 28%
    20:00 +22°C° 0 mm 3 mps 634 mmHg 32%
    21:00 +21°C° 0 mm 3 mps 635 mmHg 33%
    22:00 +20°C° 0 mm 2 mps 635 mmHg 35%
    23:00 +19°C° 0 mm 2 mps 635 mmHg 37%

    20 December, Wednesday

    Time Temperature Precipitation Wind Pressure Humidity
    00:00 +18°C° 0 mm 2 mps 635 mmHg 40%
    01:00 +18°C° 0 mm 2 mps 634 mmHg 43%
    02:00 +17°C° 0 mm 2 mps 634 mmHg 46%
    03:00 +16°C° 0 mm 1 mps 634 mmHg 50%
    04:00 +16°C° 0 mm 1 mps 634 mmHg 54%
    05:00 +15°C° 0 mm 1 mps 634 mmHg 58%
    06:00 +19°C° 0 mm 1 mps 635 mmHg 51%
    07:00 +21°C° 0 mm 1 mps 636 mmHg 44%
    08:00 +24°C° 0 mm 1 mps 637 mmHg 37%
    09:00 +25°C° 0 mm 2 mps 637 mmHg 32%
    10:00 +27°C° 0 mm 2 mps 638 mmHg 26%
    11:00 +29°C° 0 mm 3 mps 638 mmHg 21%
    12:00 +30°C° 0 mm 4 mps 638 mmHg 19%
    13:00 +32°C° 0 mm 5 mps 637 mmHg 17%
    14:00 +33°C° 0 mm 6 mps 637 mmHg 15%
    15:00 +33°C° 0 mm 6 mps 637 mmHg 15%
    16:00 +33°C° 0 mm 5 mps 637 mmHg 14%
    17:00 +32°C° 0 mm 5 mps 637 mmHg 14%
    18:00 +29°C° 0 mm 4 mps 636 mmHg 16%
    19:00 +26°C° 0 mm 3 mps 636 mmHg 17%
    20:00 +24°C° 0 mm 2 mps 636 mmHg 19%
    21:00 +23°C° 0 mm 2 mps 636 mmHg 21%
    22:00 +21°C° 0 mm 2 mps 636 mmHg 23%
    23:00 +21°C° 0 mm 1 mps 636 mmHg 25%

    21 December, Thursday

    Time Temperature Precipitation Wind Pressure Humidity
    00:00 +19°C° 0 mm 2 mps 636 mmHg 33%
    01:00 +18°C° 0 mm 2 mps 636 mmHg 41%
    02:00 +18°C° 0 mm 2 mps 635 mmHg 49%
    03:00 +18°C° 0 mm 2 mps 636 mmHg 54%
    04:00 +17°C° 0 mm 2 mps 636 mmHg 58%
    05:00 +17°C° 0 mm 2 mps 636 mmHg 63%
    06:00 +19°C° 0 mm 3 mps 636 mmHg 61%
    07:00 +21°C° 0 mm 4 mps 637 mmHg 60%
    08:00 +23°C° 0 mm 5 mps 638 mmHg 58%
    09:00 +26°C° 0.1 mm 5 mps 638 mmHg 54%
    10:00 +27°C° 0.1 mm 5 mps 638 mmHg 49%
    11:00 +28°C° 0.1 mm 5 mps 638 mmHg 45%
    12:00 +29°C° 0 mm 5 mps 637 mmHg 42%
    13:00 +29°C° 0 mm 4 mps 637 mmHg 39%
    14:00 +30°C° 0 mm 4 mps 636 mmHg 36%
    15:00 +29°C° 0.1 mm 4 mps 636 mmHg 38%
    16:00 +29°C° 0.1 mm 4 mps 635 mmHg 39%
    17:00 +29°C° 0.1 mm 4 mps 635 mmHg 41%
    18:00 +27°C° 1.1 mm 4 mps 635 mmHg 50%
    19:00 +25°C° 1.1 mm 4 mps 635 mmHg 60%
    20:00 +21°C° 1.1 mm 4 mps 635 mmHg 69%
    21:00 +21°C° 1.3 mm 3 mps 635 mmHg 72%
    22:00 +20°C° 1.3 mm 2 mps 636 mmHg 75%
    23:00 +21°C° 1.3 mm 1 mps 636 mmHg 79%

    22 December, Friday

    Time Temperature Precipitation Wind Pressure Humidity
    00:00 +21°C° 1.2 mm 1 mps 635 mmHg 80%
    01:00 +20°C° 1.2 mm 1 mps 635 mmHg 81%
    02:00 +20°C° 1.2 mm 1 mps 635 mmHg 83%
    03:00 +20°C° 1.2 mm 1 mps 635 mmHg 84%
    04:00 +20°C° 1.2 mm 1 mps 634 mmHg 85%
    05:00 +20°C° 1.2 mm 1 mps 634 mmHg 86%
    06:00 +19°C° 1 mm 2 mps 634 mmHg 86%
    07:00 +19°C° 1 mm 2 mps 634 mmHg 86%
    08:00 +19°C° 1 mm 2 mps 634 mmHg 87%
    09:00 +20°C° 1 mm 3 mps 634 mmHg 80%
    10:00 +22°C° 1 mm 3 mps 635 mmHg 73%
    11:00 +23°C° 1 mm 4 mps 635 mmHg 66%
    12:00 +25°C° 1.1 mm 4 mps 634 mmHg 64%
    13:00 +25°C° 1.1 mm 4 mps 634 mmHg 62%
    14:00 +26°C° 1.1 mm 3 mps 633 mmHg 59%
    15:00 +26°C° 0.3 mm 3 mps 633 mmHg 57%
    16:00 +26°C° 0.3 mm 3 mps 633 mmHg 54%
    17:00 +26°C° 0.3 mm 3 mps 633 mmHg 51%
    18:00 +25°C° 0.1 mm 2 mps 633 mmHg 55%
    19:00 +24°C° 0.1 mm 2 mps 633 mmHg 58%
    20:00 +23°C° 0.1 mm 1 mps 632 mmHg 61%
    21:00 +22°C° 0 mm 1 mps 632 mmHg 63%
    22:00 +21°C° 0 mm 1 mps 632 mmHg 65%
    23:00 +21°C° 0 mm 1 mps 632 mmHg 67%
    Show more